SCP
0 0 0 0 -0 -0 -0 -0 -0 -0 0 0 0 0 0 0 0 0 0 0 0 0 0 0 0 0 0 0 0 0 1 1 1 1 0 0 0 0 0 0 0 0 0
0 0 0 0 0 0 0 0 0 0 0 0 0 0 0 0 0 0 0 0 0 0 0 0 0 0 0 0 0 0 1 1 1 1 1 0 0 0 0 0 0 0 0
0 0 0 0 0 0 0 0 0 0 0 0 0 0 0 0 0 0 0 0 0 0 0 0 0 0 0 0 0 0 1 1 1 0 0 0 0 0 0 0 0 0 0
0 0 0 0 0 0 0 0 0 0 0 0 0 0 0 0 0 0 0 0 0 0 0 0 0 0 0 0 0 1 1 1 1 1 0 0 0 0 0 0 0 0 0
0 0 0 0 0 0 0 0 0 0 0 0 0 0 0 0 0 0 0 0 0 0 0 0 0 0 0 0 0 0 1 1 0 0 0 0 0 0 0 0 0 0 0
0 0 0 0 0 0 0 0 0 0 0 0 0 0 0 0 0 0 0 0 0 0 0 0 0 1 1 1 1 1 1 1 1 0 0 0 0 0 0 0 0 0 0
0 0 0 0 0 0 0 0 0 0 0 0 0 0 0 0 0 0 0 0 0 0 0 1 0 0 0 1 1 0 1 0 0 0 0 0 0 0 0 0 0 0 0
0 0 0 0 0 0 0 0 0 0 0 0 0 0 0 0 0 0 0 0 0 0 0 0 0 0 0 1 1 1 0 0 0 0 0 0 0 0 0 0 0 0 0
0 0 0 0 0 0 0 0 0 0 0 0 0 0 0 0 0 0 0 0 0 0 0 0 0 0 0 0 0 0 0 0 0 0 0 0 0 0 0 0 0 0 0
0 0 0 0 0 0 0 0 0 0 0 0 0 0 0 0 0 0 0 0 0 0 0 0 0 0 0 0 0 0 0 0 0 0 0 0 0 0 0 0 0 0 0
0 0 0 0 0 0 0 0 0 0 0 0 0 0 0 0 0 0 0 0 0 0 0 0 0 0 0 0 0 0 0 0 0 0 0 0 0 0 0 0 0 0 0
0 0 0 0 0 0 0 0 0 0 0 0 0 0 0 0 0 0 0 0 0 0 0 0 0 0 0 0 0 0 0 0 0 0 0 0 0 0 0 0 0 0 0
0 0 0 0 0 0 0 0 0 0 0 0 0 0 0 0 0 0 0 0 0 0 0 0 0 0 0 0 0 0 0 0 0 0 0 0 0 0 0 0 0 0 0
0 0 0 0 0 0 0 0 0 0 0 0 0 0 0 0 0 0 0 0 0 0 0 0 0 0 0 0 0 0 0 0 0 0 0 0 0 0 0 0 0 0 0
0 0 0 0 0 0 0 0 0 0 0 0 0 0 0 0 0 0 0 0 0 0 0 0 0 0 0 0 0 0 0 0 0 0 0 0 0 0 0 0 0 0 0
0 0 0 0 0 0 0 0 0 0 0 0 0 0 0 0 0 0 0 0 0 0 0 0 0 0 0 0 0 0 0 0 0 0 0 0 0 0 0 0 0 0 0
0 0 0 0 0 0 0 0 0 0 0 0 0 0 0 0 0 0 0 -0 0 0 0 0 0 0 0 0 0 0 0 0 0 0 0 0 0 0 0 0 0 0 -0
0 0 0 0 0 0 0 0 0 0 0 0 0 0 0 0 0 0 0 -0 -0 0 0 0 0 0 0 0 0 0 0 0 0 0 0 0 0 0 0 0 -0 -0 -0
0 0 0 0 0 0 0 0 0 0 0 0 0 0 0 0 0 0 -0 -0 -0 0 0 0 0 0 0 0 0 0 0 0 0 0 0 0 0 0 0 0 0 0 0
0 0 0 0 0 0 0 0 0 0 0 0 0 0 0 0 0 0 -0 -0 -0 0 0 0 0 0 0 0 0 0 0 0 0 0 0 0 0 0 0 0 0 0 0
0 0 0 0 0 0 0 0 0 0 0 0 0 0 0 0 0 -0 -0 -0 0 0 0 0 0 0 0 0 0 0 0 0 0 0 0 0 0 0 0 0 0 0 0
0 0 0 0 0 0 0 0 0 0 0 0 0 0 0 0 0 -0 -0 -0 -0 0 0 0 0 0 0 0 0 0 0 0 0 0 0 0 0 0 0 0 0 0 0
0 0 0 0 0 0 0 0 0 0 0 0 0 0 -0 -0 0 0 -0 -0 -0 0 0 0 0 0 0 0 0 0 0 0 0 0 0 0 0 0 0 0 0 0 0
0 0 0 0 0 0 0 0 0 0 0 0 0 0 -0 0 -0 -0 -0 -0 -0 0 0 0 0 0 0 0 0 0 0 0 0 0 0 0 0 0 0 0 0 0 0
0 0 0 0 0 0 0 0 0 0 0 0 -0 -0 -0 -0 0 -0 0 0 -0 0 0 0 0 0 0 0 0 0 0 0 0 0 0 0 0 0 0 0 0 0 0
0 0 0 0 0 0 0 0 0 0 0 0 -0 -0 -0 -0 -0 -0 -0 0 0 0 0 0 0 0 0 0 0 0 0 0 0 0 0 0 0 0 0 0 0 0 0
Wind_Speed_500mb
37 26 19 24 20 18 17 17 16 16 16 18 20 21 20 18 18 19 19 18 17 18 19 21 21 26 35 35 28 27 25 23 23 19 13 12 16 19 19 17 11 6 6
26 20 23 24 19 17 17 19 20 21 23 24 25 27 26 26 24 22 24 25 25 26 27 30 31 35 37 37 30 27 34 33 33 28 19 14 19 24 25 18 9 2 11
22 17 17 18 17 18 20 20 21 23 25 28 29 31 33 34 35 32 28 30 33 34 34 35 37 38 42 45 42 43 36 35 34 29 23 21 26 26 24 20 13 8 13
27 19 15 15 17 18 20 24 27 30 32 35 37 38 41 42 42 40 39 37 36 38 40 40 41 41 40 43 43 41 45 40 34 34 24 26 25 19 15 18 20 17 13
24 17 14 15 17 21 25 30 33 33 32 30 30 31 33 36 41 45 45 47 44 43 43 45 45 46 46 46 43 52 52 49 44 37 28 29 26 15 15 18 24 22 19
23 19 17 18 21 26 29 30 29 28 28 30 32 33 34 35 36 38 43 50 53 52 47 50 50 50 50 50 47 43 44 46 49 38 33 29 23 15 12 20 23 25 25
22 18 17 20 24 27 27 28 27 28 31 34 36 37 37 38 39 41 43 47 52 59 58 53 54 54 54 52 50 49 47 52 49 39 44 36 30 23 12 23 26 27 27
23 18 20 21 23 27 27 26 28 31 35 38 40 41 43 45 45 46 47 50 51 56 66 59 54 57 56 55 55 56 51 49 42 37 49 42 35 32 16 24 28 28 27
23 21 22 23 23 26 27 26 29 33 37 39 44 45 46 47 47 49 52 55 56 56 60 68 65 53 59 58 59 57 50 33 32 38 52 43 38 34 27 27 27 25 24
21 23 24 25 27 29 29 32 35 38 44 49 52 54 52 51 48 43 41 45 49 51 55 57 65 67 57 61 62 63 52 45 24 36 53 46 39 34 31 31 26 26 29
24 24 24 27 30 29 30 35 39 44 50 53 53 50 46 40 34 32 31 30 34 41 49 55 58 65 61 63 61 69 57 44 28 37 44 57 47 37 30 32 33 31 34
23 24 26 28 27 30 32 34 39 46 50 48 46 41 33 28 27 28 24 22 20 27 33 41 52 64 60 48 59 69 54 40 36 45 42 47 53 44 36 37 36 36 36
15 22 29 30 31 33 33 36 42 48 43 39 34 28 20 23 26 22 23 25 24 13 13 18 35 47 52 43 60 74 51 46 49 40 37 42 44 45 43 42 40 40 34
25 27 31 38 33 33 34 39 45 43 36 32 29 25 21 25 29 31 22 21 27 12 8 4 11 28 36 45 67 39 51 47 50 43 37 33 33 45 48 47 45 38 35
34 37 40 36 31 32 35 40 42 35 32 31 27 19 22 24 29 30 25 20 24 10 8 13 17 31 33 43 47 62 43 36 44 43 39 35 29 39 53 51 47 43 41
39 39 38 32 30 32 35 39 34 31 30 25 22 20 17 23 25 22 22 14 21 10 15 18 21 38 51 49 65 68 58 33 38 34 36 37 27 38 51 47 46 44 44
39 39 34 28 27 31 34 32 30 29 24 21 20 21 18 20 24 17 18 12 8 17 21 24 39 46 61 77 71 63 58 34 26 31 35 35 35 37 40 45 44 46 46
39 35 25 24 26 29 31 26 26 24 23 18 16 20 19 21 19 19 13 7 15 26 18 41 57 67 85 86 73 54 55 37 29 36 32 34 36 42 40 39 47 47 50
37 30 26 23 23 27 24 23 24 22 21 16 14 21 19 14 15 7 6 8 27 19 10 56 66 66 85 71 65 64 66 55 30 43 38 36 40 43 46 48 54 57 47
37 30 25 19 21 22 17 19 19 16 16 16 17 22 17 8 4 8 10 33 41 16 49 64 62 79 79 74 78 73 66 56 40 39 46 43 44 47 55 69 59 50 48
37 29 22 15 18 16 10 9 14 18 19 17 19 21 8 11 15 15 28 53 31 30 69 64 83 76 69 69 86 64 56 42 40 41 46 48 48 53 73 78 65 51 44
33 27 19 13 14 11 8 9 16 22 24 21 20 18 12 19 19 23 41 48 28 30 65 72 69 63 71 79 81 82 63 57 60 58 62 58 64 72 72 56 50 44 32
32 26 17 11 10 5 5 7 13 16 12 10 16 19 24 27 30 33 41 31 20 60 65 59 57 63 87 76 70 46 54 33 71 67 69 68 67 64 58 50 39 28 15
31 26 17 11 7 4 2 5 6 12 19 15 14 20 32 34 27 33 38 25 39 63 50 63 57 68 87 80 34 60 29 74 49 41 66 66 59 49 40 35 25 18 12
33 26 18 11 7 6 4 7 7 11 21 14 20 29 31 26 24 33 27 39 56 44 53 49 42 63 71 75 52 53 55 64 58 58 57 58 60 52 41 29 23 22 21
35 27 19 11 9 9 8 10 11 14 20 21 25 32 28 24 25 36 43 42 45 48 42 47 44 44 57 64 42 53 52 70 62 64 61 56 53 48 41 34 36 35 32
Wind_Direction_500mb
204 218 214 207 220 238 244 250 261 271 276 274 272 271 274 272 265 258 252 247 239 229 220 211 202 190 182 178 181 173 174 182 189 194 192 209 210 180 173 180 177 189 197
219 218 210 209 220 237 246 255 265 272 274 275 277 277 273 269 263 256 257 250 242 236 229 220 211 210 212 194 183 189 188 193 195 195 208 194 198 184 178 188 183 65 184
209 219 224 220 232 242 253 261 267 273 276 277 277 276 274 271 263 254 248 248 245 239 236 230 226 226 225 224 237 225 206 205 208 200 188 188 187 183 187 190 184 171 179
222 225 218 220 234 246 261 269 272 277 280 280 278 276 274 271 267 261 251 247 244 242 237 234 231 228 226 231 234 219 221 212 207 199 185 190 189 186 193 196 189 192 204
224 232 220 229 249 265 272 277 282 284 286 287 287 284 280 276 271 266 259 254 251 248 244 238 233 230 227 228 233 232 230 220 212 199 189 194 189 202 203 221 201 197 202
227 231 227 248 260 269 278 284 289 294 295 296 297 294 290 287 282 275 265 254 247 243 245 241 237 233 230 227 225 221 213 206 197 195 183 183 191 203 226 204 189 191 189
234 241 244 254 269 280 286 290 294 297 300 300 300 299 297 291 283 275 269 262 252 244 239 242 236 232 230 226 223 223 213 207 206 196 186 185 200 201 199 188 168 176 175
247 250 254 262 274 284 288 292 296 300 303 303 302 300 296 290 285 278 271 263 256 247 241 235 239 232 229 226 222 219 211 202 201 200 192 191 190 197 194 186 171 172 177
248 257 266 272 278 287 288 292 296 303 304 304 305 303 298 293 286 278 270 264 257 248 243 239 231 234 229 225 220 215 206 212 208 197 194 196 191 197 203 178 174 174 174
250 262 274 283 292 293 299 302 307 312 315 315 310 306 304 297 291 282 271 267 261 249 245 239 235 231 232 224 220 210 196 190 204 211 201 199 193 193 205 185 179 173 169
253 267 278 286 290 296 303 307 317 322 318 313 313 313 314 309 303 296 293 286 274 262 248 237 228 226 231 220 218 209 199 191 181 211 207 204 199 204 202 188 185 171 165
255 275 277 283 292 301 305 313 320 316 314 317 318 320 308 309 304 301 299 290 288 281 273 249 232 225 225 224 213 207 185 170 177 187 187 198 203 202 192 186 181 172 169
257 257 269 287 295 302 308 317 318 316 319 323 319 316 313 309 317 325 317 316 285 280 249 253 234 224 223 223 210 197 181 177 170 184 187 187 186 187 183 178 174 171 167
241 245 268 281 293 303 313 319 317 319 326 323 315 301 303 310 317 316 308 315 320 284 250 278 207 205 208 207 200 184 165 157 168 168 171 181 181 184 176 173 170 166 160
230 243 260 274 293 306 313 317 318 325 324 323 318 328 327 317 313 306 310 310 317 262 245 171 198 188 189 197 172 140 149 163 163 160 169 168 173 184 173 161 157 156 155
233 249 264 277 291 304 314 319 323 324 320 317 322 319 328 318 321 317 309 295 318 185 166 172 186 176 178 170 158 153 158 151 160 156 157 158 152 164 157 153 154 157 155
236 250 260 271 292 305 317 324 325 323 320 320 318 320 318 312 304 304 305 287 288 150 157 162 171 169 152 152 154 148 150 148 156 158 158 155 149 160 152 154 156 154 150
242 250 259 276 294 310 322 326 333 331 330 325 342 345 327 313 300 312 279 239 176 158 135 159 161 160 147 145 139 139 151 158 164 157 156 157 152 156 155 151 152 149 145
243 248 260 275 298 315 329 336 344 347 351 7 353 350 334 316 310 306 187 205 174 177 89 163 157 159 150 148 149 149 155 167 169 159 160 161 157 158 151 151 147 143 141
237 245 252 276 302 322 335 354 7 17 25 19 11 359 333 11 52 126 156 151 165 152 128 161 158 155 153 152 153 157 159 160 167 160 156 158 154 154 152 146 150 147 139
231 239 245 274 304 324 339 34 41 37 50 27 25 353 8 87 103 113 143 151 145 137 150 167 153 159 156 159 150 154 143 152 163 160 156 159 157 156 148 144 146 145 138
228 227 237 267 303 321 354 43 47 44 44 28 29 24 84 108 118 134 140 146 137 131 157 160 165 166 160 156 149 146 135 144 155 148 144 148 147 145 144 143 150 146 144
221 220 229 257 296 299 21 56 63 53 46 60 41 77 101 107 110 121 142 138 155 156 169 175 176 171 160 163 153 157 141 142 129 141 141 143 145 147 151 148 145 142 151
213 214 222 247 268 239 62 102 99 45 71 67 77 104 112 111 112 138 153 167 164 164 169 167 170 173 168 160 156 167 165 145 136 117 136 141 150 155 159 159 167 181 163
208 209 217 235 230 208 166 126 105 74 96 98 110 122 119 113 114 153 163 149 165 157 180 174 174 182 178 169 162 155 162 168 158 142 133 139 148 152 161 176 203 207 200
203 207 213 225 209 196 177 148 125 110 113 130 122 130 126 120 120 144 151 154 164 176 179 182 182 188 186 184 179 172 169 175 176 166 158 154 164 161 171 188 210 208 215
Wind_Speed_850mb
37 26 19 24 20 18 17 17 16 16 16 18 20 21 20 18 18 19 19 18 17 18 19 21 21 26 35 35 28 27 25 23 23 19 13 12 16 19 19 17 11 6 6
26 20 23 24 19 17 17 19 20 21 23 24 25 27 26 26 24 22 24 25 25 26 27 30 31 35 37 37 30 27 34 33 33 28 19 14 19 24 25 18 9 2 11
22 17 17 18 17 18 20 20 21 23 25 28 29 31 33 34 35 32 28 30 33 34 34 35 37 38 42 45 42 43 36 35 34 29 23 21 26 26 24 20 13 8 13
27 19 15 15 17 18 20 24 27 30 32 35 37 38 41 42 42 40 39 37 36 38 40 40 41 41 40 43 43 41 45 40 34 34 24 26 25 19 15 18 20 17 13
24 17 14 15 17 21 25 30 33 33 32 30 30 31 33 36 41 45 45 47 44 43 43 45 45 46 46 46 43 52 52 49 44 37 28 29 26 15 15 18 24 22 19
23 19 17 18 21 26 29 30 29 28 28 30 32 33 34 35 36 38 43 50 53 52 47 50 50 50 50 50 47 43 44 46 49 38 33 29 23 15 12 20 23 25 25
22 18 17 20 24 27 27 28 27 28 31 34 36 37 37 38 39 41 43 47 52 59 58 53 54 54 54 52 50 49 47 52 49 39 44 36 30 23 12 23 26 27 27
23 18 20 21 23 27 27 26 28 31 35 38 40 41 43 45 45 46 47 50 51 56 66 59 54 57 56 55 55 56 51 49 42 37 49 42 35 32 16 24 28 28 27
23 21 22 23 23 26 27 26 29 33 37 39 44 45 46 47 47 49 52 55 56 56 60 68 65 53 59 58 59 57 50 33 32 38 52 43 38 34 27 27 27 25 24
21 23 24 25 27 29 29 32 35 38 44 49 52 54 52 51 48 43 41 45 49 51 55 57 65 67 57 61 62 63 52 45 24 36 53 46 39 34 31 31 26 26 29
24 24 24 27 30 29 30 35 39 44 50 53 53 50 46 40 34 32 31 30 34 41 49 55 58 65 61 63 61 69 57 44 28 37 44 57 47 37 30 32 33 31 34
23 24 26 28 27 30 32 34 39 46 50 48 46 41 33 28 27 28 24 22 20 27 33 41 52 64 60 48 59 69 54 40 36 45 42 47 53 44 36 37 36 36 36
15 22 29 30 31 33 33 36 42 48 43 39 34 28 20 23 26 22 23 25 24 13 13 18 35 47 52 43 60 74 51 46 49 40 37 42 44 45 43 42 40 40 34
25 27 31 38 33 33 34 39 45 43 36 32 29 25 21 25 29 31 22 21 27 12 8 4 11 28 36 45 67 39 51 47 50 43 37 33 33 45 48 47 45 38 35
34 37 40 36 31 32 35 40 42 35 32 31 27 19 22 24 29 30 25 20 24 10 8 13 17 31 33 43 47 62 43 36 44 43 39 35 29 39 53 51 47 43 41
39 39 38 32 30 32 35 39 34 31 30 25 22 20 17 23 25 22 22 14 21 10 15 18 21 38 51 49 65 68 58 33 38 34 36 37 27 38 51 47 46 44 44
39 39 34 28 27 31 34 32 30 29 24 21 20 21 18 20 24 17 18 12 8 17 21 24 39 46 61 77 71 63 58 34 26 31 35 35 35 37 40 45 44 46 46
39 35 25 24 26 29 31 26 26 24 23 18 16 20 19 21 19 19 13 7 15 26 18 41 57 67 85 86 73 54 55 37 29 36 32 34 36 42 40 39 47 47 50
37 30 26 23 23 27 24 23 24 22 21 16 14 21 19 14 15 7 6 8 27 19 10 56 66 66 85 71 65 64 66 55 30 43 38 36 40 43 46 48 54 57 47
37 30 25 19 21 22 17 19 19 16 16 16 17 22 17 8 4 8 10 33 41 16 49 64 62 79 79 74 78 73 66 56 40 39 46 43 44 47 55 69 59 50 48
37 29 22 15 18 16 10 9 14 18 19 17 19 21 8 11 15 15 28 53 31 30 69 64 83 76 69 69 86 64 56 42 40 41 46 48 48 53 73 78 65 51 44
33 27 19 13 14 11 8 9 16 22 24 21 20 18 12 19 19 23 41 48 28 30 65 72 69 63 71 79 81 82 63 57 60 58 62 58 64 72 72 56 50 44 32
32 26 17 11 10 5 5 7 13 16 12 10 16 19 24 27 30 33 41 31 20 60 65 59 57 63 87 76 70 46 54 33 71 67 69 68 67 64 58 50 39 28 15
31 26 17 11 7 4 2 5 6 12 19 15 14 20 32 34 27 33 38 25 39 63 50 63 57 68 87 80 34 60 29 74 49 41 66 66 59 49 40 35 25 18 12
33 26 18 11 7 6 4 7 7 11 21 14 20 29 31 26 24 33 27 39 56 44 53 49 42 63 71 75 52 53 55 64 58 58 57 58 60 52 41 29 23 22 21
35 27 19 11 9 9 8 10 11 14 20 21 25 32 28 24 25 36 43 42 45 48 42 47 44 44 57 64 42 53 52 70 62 64 61 56 53 48 41 34 36 35 32
Wind_Direction_850mb
204 218 214 207 220 238 244 250 261 271 276 274 272 271 274 272 265 258 252 247 239 229 220 211 202 190 182 178 181 173 174 182 189 194 192 209 210 180 173 180 177 189 197
219 218 210 209 220 237 246 255 265 272 274 275 277 277 273 269 263 256 257 250 242 236 229 220 211 210 212 194 183 189 188 193 195 195 208 194 198 184 178 188 183 65 184
209 219 224 220 232 242 253 261 267 273 276 277 277 276 274 271 263 254 248 248 245 239 236 230 226 226 225 224 237 225 206 205 208 200 188 188 187 183 187 190 184 171 179
222 225 218 220 234 246 261 269 272 277 280 280 278 276 274 271 267 261 251 247 244 242 237 234 231 228 226 231 234 219 221 212 207 199 185 190 189 186 193 196 189 192 204
224 232 220 229 249 265 272 277 282 284 286 287 287 284 280 276 271 266 259 254 251 248 244 238 233 230 227 228 233 232 230 220 212 199 189 194 189 202 203 221 201 197 202
227 231 227 248 260 269 278 284 289 294 295 296 297 294 290 287 282 275 265 254 247 243 245 241 237 233 230 227 225 221 213 206 197 195 183 183 191 203 226 204 189 191 189
234 241 244 254 269 280 286 290 294 297 300 300 300 299 297 291 283 275 269 262 252 244 239 242 236 232 230 226 223 223 213 207 206 196 186 185 200 201 199 188 168 176 175
247 250 254 262 274 284 288 292 296 300 303 303 302 300 296 290 285 278 271 263 256 247 241 235 239 232 229 226 222 219 211 202 201 200 192 191 190 197 194 186 171 172 177
248 257 266 272 278 287 288 292 296 303 304 304 305 303 298 293 286 278 270 264 257 248 243 239 231 234 229 225 220 215 206 212 208 197 194 196 191 197 203 178 174 174 174
250 262 274 283 292 293 299 302 307 312 315 315 310 306 304 297 291 282 271 267 261 249 245 239 235 231 232 224 220 210 196 190 204 211 201 199 193 193 205 185 179 173 169
253 267 278 286 290 296 303 307 317 322 318 313 313 313 314 309 303 296 293 286 274 262 248 237 228 226 231 220 218 209 199 191 181 211 207 204 199 204 202 188 185 171 165
255 275 277 283 292 301 305 313 320 316 314 317 318 320 308 309 304 301 299 290 288 281 273 249 232 225 225 224 213 207 185 170 177 187 187 198 203 202 192 186 181 172 169
257 257 269 287 295 302 308 317 318 316 319 323 319 316 313 309 317 325 317 316 285 280 249 253 234 224 223 223 210 197 181 177 170 184 187 187 186 187 183 178 174 171 167
241 245 268 281 293 303 313 319 317 319 326 323 315 301 303 310 317 316 308 315 320 284 250 278 207 205 208 207 200 184 165 157 168 168 171 181 181 184 176 173 170 166 160
230 243 260 274 293 306 313 317 318 325 324 323 318 328 327 317 313 306 310 310 317 262 245 171 198 188 189 197 172 140 149 163 163 160 169 168 173 184 173 161 157 156 155
233 249 264 277 291 304 314 319 323 324 320 317 322 319 328 318 321 317 309 295 318 185 166 172 186 176 178 170 158 153 158 151 160 156 157 158 152 164 157 153 154 157 155
236 250 260 271 292 305 317 324 325 323 320 320 318 320 318 312 304 304 305 287 288 150 157 162 171 169 152 152 154 148 150 148 156 158 158 155 149 160 152 154 156 154 150
242 250 259 276 294 310 322 326 333 331 330 325 342 345 327 313 300 312 279 239 176 158 135 159 161 160 147 145 139 139 151 158 164 157 156 157 152 156 155 151 152 149 145
243 248 260 275 298 315 329 336 344 347 351 7 353 350 334 316 310 306 187 205 174 177 89 163 157 159 150 148 149 149 155 167 169 159 160 161 157 158 151 151 147 143 141
237 245 252 276 302 322 335 354 7 17 25 19 11 359 333 11 52 126 156 151 165 152 128 161 158 155 153 152 153 157 159 160 167 160 156 158 154 154 152 146 150 147 139
231 239 245 274 304 324 339 34 41 37 50 27 25 353 8 87 103 113 143 151 145 137 150 167 153 159 156 159 150 154 143 152 163 160 156 159 157 156 148 144 146 145 138
228 227 237 267 303 321 354 43 47 44 44 28 29 24 84 108 118 134 140 146 137 131 157 160 165 166 160 156 149 146 135 144 155 148 144 148 147 145 144 143 150 146 144
221 220 229 257 296 299 21 56 63 53 46 60 41 77 101 107 110 121 142 138 155 156 169 175 176 171 160 163 153 157 141 142 129 141 141 143 145 147 151 148 145 142 151
213 214 222 247 268 239 62 102 99 45 71 67 77 104 112 111 112 138 153 167 164 164 169 167 170 173 168 160 156 167 165 145 136 117 136 141 150 155 159 159 167 181 163
208 209 217 235 230 208 166 126 105 74 96 98 110 122 119 113 114 153 163 149 165 157 180 174 174 182 178 169 162 155 162 168 158 142 133 139 148 152 161 176 203 207 200
203 207 213 225 209 196 177 148 125 110 113 130 122 130 126 120 120 144 151 154 164 176 179 182 182 188 186 184 179 172 169 175 176 166 158 154 164 161 171 188 210 208 215